Location: Handeloh
(53.2500°N, 9.8330°E)
Time: 04:44:36
(UTC+01:00)

Altair - Visible Passes

Search period start: 14 November 2019 00:00
Search period end: 24 November 2019 00:00
Orbit: 1502 x 1682 km, 47.2° (Epoch: 12 November)

Date Brightness Start Highest point End Pass type
(mag) Time Alt. Az. Time Alt. Az. Time Alt. Az.
14 Nov 9.1 03:09:34 15° SSE 03:12:26 18° SE 03:18:02 10° E visible
14 Nov 8.3 05:07:37 13° SW 05:15:08 43° SSE 05:23:43 10° E visible
15 Nov 9.2 02:46:17 16° SE 02:47:28 16° SE 02:52:35 10° E visible
15 Nov 8.3 04:44:20 20° SSW 04:50:04 41° SSE 04:58:32 10° E visible
15 Nov 7.9 06:44:45 10° WSW 06:53:44 61° S 07:02:57 10° E visible
16 Nov 9.3 02:22:54 15° SE 02:22:54 15° SE 02:27:03 10° E visible
16 Nov 8.3 04:20:57 27° SSW 04:25:01 39° SSE 04:33:22 10° E visible
16 Nov 7.9 06:19:40 10° WSW 06:28:37 60° S 06:37:48 10° E visible
17 Nov 9.4 01:59:27 12° ESE 01:59:27 12° ESE 02:01:24 10° E visible
17 Nov 8.3 03:57:30 32° S 03:59:58 37° SSE 04:08:11 10° E visible
17 Nov 7.8 05:55:33 14° WSW 06:03:31 59° S 06:12:39 10° E visible
18 Nov 8.3 03:33:58 35° SSE 03:34:56 35° SE 03:43:00 10° E visible
18 Nov 7.8 05:32:01 21° WSW 05:38:25 58° S 05:47:29 10° E visible
19 Nov 8.4 03:10:24 33° SE 03:10:24 33° SE 03:17:49 10° E visible
19 Nov 7.8 05:08:26 29° SW 05:13:19 57° SSE 05:22:21 10° E visible
19 Nov 7.9 07:08:19 10° W 07:17:14 58° SSW 07:26:25 10° ESE visible
20 Nov 8.6 02:46:47 29° ESE 02:46:47 29° ESE 02:52:36 10° E visible
20 Nov 7.7 04:44:49 38° SW 04:48:13 56° SSE 04:57:12 10° E visible
20 Nov 7.9 06:43:12 10° W 06:52:09 59° S 07:01:18 10° ESE visible
21 Nov 8.9 02:23:08 24° ESE 02:23:08 24° ESE 02:27:24 10° E visible
21 Nov 7.7 04:21:09 47° SSW 04:23:07 55° SSE 04:32:03 10° E visible
21 Nov 7.8 06:19:11 14° W 06:27:03 59° S 06:36:11 10° ESE visible
22 Nov 9.2 01:59:27 19° E 01:59:27 19° E 02:02:11 10° E visible
22 Nov 7.7 03:57:28 52° S 03:58:02 53° SSE 04:06:54 10° E visible
22 Nov 7.7 05:55:29 21° WSW 06:01:56 60° S 06:11:04 10° ESE visible
23 Nov 9.4 01:35:44 14° E 01:35:44 14° E 01:36:57 10° E visible
23 Nov 7.8 03:33:45 50° SE 03:33:45 50° SE 03:41:45 10° E visible
23 Nov 7.7 05:31:47 29° WSW 05:36:49 61° S 05:45:56 10° ESE visible
